Location: Demmingen
(48.6757°N, 10.4375°E)
Time: 08:05:58
(UTC+00:00)

SL-16 R/B - Pass Details

Date: 23 May 2024
Orbit: 842 x 845 km, 71.0° (Epoch: 15 June)

Event Time Altitude Azimuth Distance (km) Brightness Sun altitude
Rises 01:35:35 0° 327° (NNW) 3,416 5.7 -13.9°
Reaches altitude 10° 01:38:07 10° 322° (NW) 2,477 4.9 -13.7°
Maximum altitude 01:43:31 47° 251° (WSW) 1,112 2.5 -13.2°
Drops below altitude 10° 01:48:54 10° 179° (S) 2,460 4.2 -12.6°
Enters shadow 01:49:00 10° 178° (S) 2,496 4.2 -12.6°
